Content
SEND FEEDBACK

Daily
Averages
Monthly
Summary
United States of America

ASATDAS, GUAM


Home > North America > United States > Guam
Elevation: 612 feet     Latitude: 13 35N     Longitude: 144 56E

WEATHER
 
SELECT A DAY
Number of Records: 209,133;   Date Range: 1/1/95 - 8/28/14
 
SHARE

PRINT THIS DATA

[ ← Previous Day ]
WEATHER ALMANAC - JUNE 25, 2013
[ Next Day → ]
[ °C ]   °F
We're sorry. There is no daily almanac available for Asatdas, Guam on June 25, 2013.
WEATHER BY HOUR - JUNE 25, 2013
[ °C ]   °F
Local TimeTemperatureDewpointHumidityBarometerVisibilityWind DirectionWind SpeedGust SpeedPrecipitationEventsConditions
1:54 AM82.0 °F77.0 °F85 %29.89 in10.0 miEast (80°)8.1 mphClear
2:54 AM81.0 °F77.0 °F88 %29.89 in10.0 miENE (60°)5.8 mphScattered Clouds
3:54 AM81.0 °F77.0 °F88 %29.89 in10.0 miCalmPartly Cloudy
4:54 AM81.0 °F75.9 °F85 %29.89 in10.0 miNE (40°)6.9 mphClear
5:54 AM82.0 °F75.9 °F82 %29.89 in10.0 miEast (90°)5.8 mphPartly Cloudy
6:54 AM82.9 °F77.0 °F82 %29.91 in10.0 miENE (70°)8.1 mphClear
7:54 AM84.0 °F75.9 °F76 %29.91 in10.0 miEast (80°)9.2 mphPartly Cloudy
8:54 AM86.0 °F77.0 °F74 %29.92 in10.0 miEast (90°)8.1 mphScattered Clouds
9:47 AM87.8 °F77.0 °F70 %29.94 in10.0 miEast (80°)13.8 mphMostly Cloudy
9:54 AM88.0 °F77.0 °F70 %29.91 in10.0 miENE (70°)12.7 mphMostly Cloudy
10:23 AM87.8 °F75.2 °F66 %29.94 in10.0 miEast (90°)10.4 mphMostly Cloudy
10:54 AM88.0 °F75.9 °F67 %29.91 in10.0 miEast (100°)16.1 mphMostly Cloudy
11:08 AM87.8 °F75.2 °F66 %29.94 in10.0 miEast (100°)13.8 mphScattered Clouds
11:54 AM89.1 °F75.9 °F65 %29.91 in10.0 miEast (100°)15.0 mph19.6 mphScattered Clouds
12:54 PM89.1 °F75.9 °F65 %29.90 in10.0 miEast (100°)11.5 mphMostly Cloudy
1:29 PM87.8 °F77.0 °F70 %29.92 in10.0 miESE (120°)8.1 mphMostly Cloudy
1:54 PM89.1 °F75.9 °F65 %29.88 in10.0 miEast (90°)10.4 mphMostly Cloudy
2:09 PM87.8 °F75.2 °F66 %29.90 in10.0 miESE (110°)10.4 mphMostly Cloudy
2:24 PM89.6 °F75.2 °F62 %29.90 in10.0 miESE (110°)10.4 mph18.4 mphScattered Clouds
2:54 PM89.1 °F75.0 °F63 %29.87 in10.0 miESE (110°)9.2 mphPartly Cloudy
3:54 PM88.0 °F75.0 °F65 %29.86 in10.0 miEast (100°)8.1 mphPartly Cloudy
4:54 PM88.0 °F75.0 °F65 %29.86 in10.0 miEast (100°)9.2 mphScattered Clouds
5:54 PM86.0 °F75.0 °F70 %29.87 in10.0 miEast (90°)6.9 mphPartly Cloudy
6:54 PM84.9 °F75.9 °F74 %29.87 in10.0 miEast (90°)4.6 mphPartly Cloudy
7:54 PM84.9 °F77.0 °F77 %29.88 in10.0 miNE (40°)5.8 mphPartly Cloudy
8:54 PM84.0 °F77.0 °F79 %29.88 in10.0 miNE (50°)5.8 mphPartly Cloudy
9:54 PM84.0 °F77.0 °F79 %29.89 in10.0 miENE (60°)8.1 mphClear
10:54 PM84.0 °F75.9 °F76 %29.89 in10.0 miENE (60°)9.2 mphPartly Cloudy
11:54 PM84.0 °F75.9 °F76 %29.88 in10.0 miENE (70°)12.7 mphClear
Hourly data recorded from PGUM, located miles away from Asatdas, Guam







STORIES FROM OUR PARTNERS